Burnet, TX

5:54 AM CST on February 09, 2016 (GMT -0600)
Burnet Municipal-Craddock

Weather History for KBMQ - June, 2014

Change the Weather History Date:

Saturday, June 14, 2014

  Actual Average Record
Temperature  
Mean Temperature 78 °F -  
Max Temperature 86 °F 87 °F 102 °F (1998)
Min Temperature 71 °F 68 °F 63 °F (2003)
Cooling Degree Days 12    
Growing Degree Days 28 (Base 50)    
Moisture  
Dew Point 68 °F    
Average Humidity 76    
Maximum Humidity 90    
Minimum Humidity 57    
Precipitation  
Precipitation 0.00 in - - ()
Sea Level Pressure  
Sea Level Pressure 29.91 in    
Wind  
Wind Speed 7 mph (South)    
Max Wind Speed 14 mph    
Max Gust Speed 24 mph    
Visibility 10 miles    
Events      
Averages and records for this station are not official NWS values.
T = Trace of Precipitation, MM = Missing Value Source: NWS Daily Summary

Daily Weather History Graph

Daily Weather History Graph

Search for Another Location

Airport or City:

Trip Planner

Search our weather history database for the weather conditions in past years. The results will help you decide how hot, cold, wet, or windy it might be!

Date:

Astronomy

Jun. 14, 2014 Rise Set
Actual Time 6:29 AM CDT 8:37 PM CDT
Civil Twilight 6:01 AM CDT 9:04 PM CDT
Nautical Twilight 5:28 AM CDT 9:38 PM CDT
Astronomical Twilight 4:51 AM CDT 10:14 PM CDT
Moon 10:09 PM CDT (6/14) 8:08 AM CDT (6/14)
Length of Visible Light 15h 02m
Length of Day
14h 07m
Waning Gibbous, 97% of the Moon is Illuminated
Jun 14
Waning Gibbous
Jun 19
Last Quarter
Jun 27
New
Jul 5
First Quarter
Jul 12
Full

Hourly Weather History & Observations

Time (CDT) Temp. Heat Index Dew Point Humidity Pressure Visibility Wind Dir Wind Speed Gust Speed Precip Events Conditions
12:53 AM 75.9 °F - 68.0 °F 76% 29.93 in 10.0 mi SSE 3.5 mph - N/A   Clear
1:53 AM 75.0 °F - 69.1 °F 82% 29.93 in 10.0 mi South 6.9 mph - N/A   Clear
2:53 AM 73.9 °F - 69.1 °F 85% 29.91 in 10.0 mi SSE 5.8 mph - N/A   Clear
3:36 AM 73.9 °F - 70.0 °F 87% 29.98 in 10.0 mi South 6.9 mph - N/A   Mostly Cloudy
3:53 AM 73.9 °F - 70.0 °F 87% 29.93 in 10.0 mi South 5.8 mph - N/A   Overcast
4:43 AM 73.0 °F - 70.0 °F 90% 29.99 in 10.0 mi South 4.6 mph - N/A   Scattered Clouds
4:53 AM 73.0 °F - 70.0 °F 90% 29.94 in 10.0 mi Calm Calm - N/A   Mostly Cloudy
5:35 AM 73.0 °F - 70.0 °F 90% 30.02 in 10.0 mi WNW 8.1 mph - N/A   Overcast
5:42 AM 73.9 °F - 70.0 °F 87% 30.02 in 10.0 mi NNW 8.1 mph - N/A   Overcast
5:51 AM 73.4 °F - 66.2 °F 78% 30.02 in 10.0 mi North 12.7 mph - N/A   Overcast
5:53 AM 73.0 °F - 64.9 °F 76% 29.96 in 10.0 mi North 9.2 mph - N/A   Overcast
6:53 AM 73.0 °F - 64.0 °F 73% 29.95 in 10.0 mi NNW 3.5 mph - N/A   Mostly Cloudy
7:53 AM 72.0 °F - 66.0 °F 81% 29.95 in 10.0 mi SW 9.2 mph - N/A   Overcast
8:53 AM 71.1 °F - 64.0 °F 78% 29.95 in 10.0 mi SW 10.4 mph - N/A   Clear
9:53 AM 71.1 °F - 64.9 °F 81% 29.88 in 10.0 mi SSE 9.2 mph - N/A   Mostly Cloudy
10:53 AM 75.0 °F - 64.9 °F 71% 29.88 in 10.0 mi SSE 4.6 mph - N/A   Clear
11:53 AM 75.0 °F - 66.9 °F 76% 29.91 in 10.0 mi SSE 3.5 mph - N/A   Clear
12:53 PM 79.0 °F - 69.1 °F 72% 29.91 in 10.0 mi South 12.7 mph 17.3 mph N/A   Clear
1:53 PM 82.0 °F 85.5 °F 69.1 °F 65% 29.90 in 10.0 mi South 13.8 mph 19.6 mph N/A   Mostly Cloudy
2:53 PM 81.0 °F 83.8 °F 68.0 °F 65% 29.88 in 10.0 mi South 13.8 mph 24.2 mph N/A   Clear
4:53 PM 84.9 °F 88.2 °F 68.0 °F 57% 29.83 in 10.0 mi South 11.5 mph 19.6 mph N/A   Clear
5:53 PM 84.9 °F 88.8 °F 69.1 °F 59% 29.82 in 10.0 mi SSE 10.4 mph 20.7 mph N/A   Clear
6:53 PM 84.0 °F 87.8 °F 69.1 °F 61% 29.81 in 10.0 mi SSE 12.7 mph 19.6 mph N/A   Clear
7:53 PM 82.0 °F 85.5 °F 69.1 °F 65% 29.82 in 10.0 mi SE 9.2 mph - N/A   Clear
8:53 PM 80.1 °F 83.2 °F 70.0 °F 71% 29.83 in 10.0 mi SSE 8.1 mph - N/A   Clear
9:53 PM 79.0 °F - 70.0 °F 74% 29.85 in 10.0 mi SE 6.9 mph - N/A   Clear
10:53 PM 79.0 °F - 69.1 °F 72% 29.86 in 10.0 mi SSE 10.4 mph - N/A   Clear
11:53 PM 77.0 °F - 66.9 °F 71% 29.86 in 10.0 mi SSE 8.1 mph 19.6 mph N/A   Clear